16:15
Airports
History
Links
Donate
Help keep this website running!
PayPal
Bitcoin
This page is community maintained. The information is intended for PC simulator navigation or reference.
Always use approved charts for navigation.
EHHO
Hoogeveen
Hoogeveen (EHHO)
Hoogeveen, Drenthe, Netherlands (7903)
(C)
Lat/Lng:52° 43' 49.55" N / 6° 31' 27.37" E
52.730431 / 6.52427
Elevation:42'ft / 13mMSL
ID / ICAO:EHHO
Runways:1
Longest:10-28
Grass 1,094m / 3,591ft
Controlled:Yes
Nearby Weather15:55 GMT 2017-10-19
Nearby weather at EHGG, Eelde located 27.2 nautical miles from EHHO
Altimeter: 29.77
Visibility: 6.2 statute miles
Wind: 6 knots (from 130°)
Temp: 18°c / 64°f
Humidity: 77.5%

METAR: EHGG 191555Z AUTO 13006KT 090V170 9999 NCD 18/14 Q1008 NOSIG

(Powered by phpweather)
Nearby VORs <50NM
Nearby NDBs
Runway 10 / 28
Dimensions:1094.4 x 45.1m 3591' x 148'ft
Surface:Grass
Runway 10 [A]Runway 28 [B]
Heading:093°TH 273°TH
Lat:
Lng:
52° 43' 50.79"N
6° 30' 57.98"E
52° 43' 48.31"N
6° 31' 56.77"E
ALS:RAIL
User Notes and Comments
52° 43' 49.55" N / 6° 31' 27.37" E
Distance To
Airport ID:
Nearby Airports
4 Dalfsen Gliders 20.3 NM
EHDS SSW 204°
4 Voorst Sport 25.3 NM
EHDV W 260°
(C) Eelde 27.2 NM
EHGG ( WX ) N
(C) Drachten 31.5 NM
EHDR NNW 328°
4 Emmeloord 32.5 NM
EHNP W 269°
(C) Nordhorn-Lingen 33.5 NM
EDWN SE 124°
(C) Meppen 33.6 NM
ETWM E 90°
VFR Chart
Flight Planning at SkyVector.com